Location: Oakley
(37.9974°N, 121.7125°W)
Time: 10:18:23
(UTC+00:00)

Daily predictions for brighter satellites

Satellite Brightness Start Highest point End
(mag) Time Altitude Azimuth Time Altitude Azimuth Time Altitude Azimuth
Cosmos 2344 4.2 12:10:38 34° NNW 12:15:10 76° ENE 12:26:56 10° SE
COSMOS 2455 3.1 12:22:59 62° SE 12:23:24 63° ESE 12:29:21 10° NE
Cosmos 1934 Rocket 4.4 12:25:01 10° S 12:30:58 59° E 12:37:02 10° NNE
Cosmos 1486 Rocket 4.2 12:36:43 60° SSE 12:37:26 67° ESE 12:42:42 10° NNE
Cosmos 2227 Rocket 3.0 12:34:07 18° N 12:38:08 49° ENE 12:43:35 10° SE
BREEZE-M DEB (TANK) 4.1 12:39:20 49° NW 12:39:50 50° NNW 12:44:51 10° NE
Meteor 2-16 Rocket 4.4 12:37:17 10° N 12:43:24 81° E 12:49:31 10° S
SJ-11-01 4.2 12:47:21 10° NNE 12:52:01 86° ESE 12:52:13 82° SSE
Meteor 2-8 Rocket 4.3 12:51:28 50° SW 12:53:01 68° W 12:59:11 10° N
Meteor 2-21 Rocket 4.3 12:48:13 10° NNW 12:54:18 71° W 13:00:20 10° S
CZ-2C R/B 4.4 12:50:21 10° N 12:51:17 16° N 12:51:17 16° N
Cosmos 1980 Rocket 2.1 12:59:46 26° SSW 13:03:00 89° ESE 13:08:37 10° NNE
Cosmos 836 Rocket 4.3 13:03:46 22° NNW 13:07:12 84° WSW 13:12:24 10° SSE
Meteor 1-11 4.2 13:05:34 10° N 13:11:27 84° W 13:17:18 10° S
Cosmos 1697 Rocket 3.5 13:14:45 32° NW 13:14:45 32° NW 13:19:08 10° N
SL-4 R/B 3.3 13:18:10 23° N 13:19:24 28° NNE 13:22:42 10° E
FengYun 1-2 T 4.3 13:14:47 10° N 13:20:05 53° WNW 13:25:23 10° SSW
SKYMED 2 3.7 13:16:59 10° SSE 13:21:18 77° ENE 13:25:38 10° N
Cosmos 2297 Rocket 3.4 13:24:25 23° SW 13:24:25 23° SW 13:27:14 10° SSW
Cosmos 990 Rocket 4.2 13:17:38 10° S 13:22:48 70° ESE 13:28:01 10° NNE
NOSS 3-1 (C) 2.8 13:23:41 40° WSW 13:25:05 57° NW 13:30:15 10° NNE
Exosat Rocket 3.4 13:26:08 10° NNW 13:31:28 70° WSW 13:36:25 10° S
NOSS 3-1 (A) 3.4 13:27:26 10° SSW 13:31:45 55° ESE 13:36:44 10° NE
Cosmos 1908 Rocket 3.4 13:30:48 10° SSW 13:35:06 75° W 13:39:29 10° N
Cosmos 2219 4.0 13:31:54 10° NNW 13:37:31 54° ENE 13:43:02 10° SE
USA 215 4.2 13:32:21 10° ESE 13:38:29 44° NE 13:44:38 10° NW
H-2A R/B 4.2 13:37:01 10° N 13:39:50 28° NW 13:39:50 28° NW
Cosmos 1812 1.6 13:41:45 10° S 13:44:07 72° E 13:46:30 10° N
IRS-1D 3.6 13:43:34 10° N 13:48:35 52° WNW 13:53:28 10° SSW
Cosmos 1484 Rocket 3.7 13:46:41 10° NNE 13:50:03 46° E 13:53:25 10° S
Cosmos 2263 Rocket 2.1 13:45:50 10° NNW 13:51:28 70° WSW 13:57:03 10° SSE
ISS -3.9 13:50:36 19° SW 13:52:53 85° NW 13:56:13 10° NE
Cosmos 2221 Rocket 3.6 13:48:24 10° NNW 13:52:53 64° W 13:57:20 10° S
Cosmos 1503 Rocket 4.5 13:48:39 10° SW 13:53:24 37° WNW 13:58:14 10° N
IGS 5A 3.3 13:51:57 10° NNE 13:55:56 88° ESE 13:59:54 10° SSW
Intercosmos 25 Rocket 3.6 13:54:34 10° NNW 13:57:27 31° W 14:00:27 10° SSW
Cosmos 2346 Rocket 4.4 13:52:20 10° N 13:58:29 76° W 14:04:32 10° S
MOS 1 Rocket 4.5 13:56:01 10° NNE 14:00:13 44° E 14:04:35 10° S
Aureole 1 Rocket 4.4 13:55:09 10° SSW 14:02:35 84° ESE 14:09:19 10° NNE
Cosmos 2369 3.8 13:57:24 10° SW 14:02:57 55° WNW 14:08:30 10° NNE
Cosmos 1025 Rocket 3.7 14:01:12 10° NNW 14:05:06 33° W 14:08:58 10° SSW
Cosmos 1400 Rocket 2.8 14:01:54 10° SSW 14:05:33 48° WNW 14:09:16 10° N
FALCON 9 R/B 1.3 14:04:24 14° WSW 14:06:13 35° S 14:08:20 10° ESE
Cosmos 2082 3.9 14:00:56 10° NNW 14:06:40 77° ENE 14:12:18 10° SSE
H-2A ROCKET BODY 4.1 13:49:13 10° WSW 14:07:47 45° S 14:13:02 10° ESE
Cosmos 1602 3.6 14:06:54 10° N 14:09:38 56° E 14:12:22 10° SSE
COSMOS 2455 4.0 14:06:11 14° W 14:09:46 22° NW 14:14:23 10° N
GP-B 3.0 14:05:36 10° N 14:09:57 73° W 14:14:18 10° S
SL-16 R/B 2.6 14:06:46 10° S 14:12:22 69° ESE 14:18:00 10° NNE
Cosmos 2100 Rocket 4.3 14:07:18 10° S 14:13:40 79° E 14:20:01 10° N
Cosmos 2227 Rocket 3.4 14:17:35 10° NW 14:21:43 21° W 14:25:52 10° SSW
Cosmos 2333 Rocket 2.8 14:16:28 10° S 14:22:09 64° ESE 14:27:50 10° NNE
Cosmos 1300 Rocket 4.1 14:18:27 10° SW 14:22:30 37° WNW 14:26:36 10° N
COSMO-SKYMED 1 3.1 14:19:13 10° SSW 14:22:57 34° W 14:26:42 10° NNW
Helios 1A Rocket 2.4 14:22:33 10° SSE 14:25:49 84° ENE 14:29:05 10° NNW
ARIANE 5 R/B 3.8 14:25:30 10° NNE 14:30:17 46° E 14:35:03 10° S
Landsat 7 3.8 14:29:33 10° NNE 14:34:13 87° W 14:38:51 10° SSW
